When you browse on this site, cookies collect data to enhance your experience and personalize the content and advertising you see.
Visit our Privacy Policy to learn more. By continuing to use the site, you agree to this use of cookies and data.
  • In France
  • List of Countries
  • For 7 days
  • Water Temperature
  • Weather Map
  • Weather Widgets
  • user-avatar
    Login

    Hourly Weather Gweru

    Today, 9 December, Monday

    Time Temperature Precipitation Wind Pressure Humidity
    00:00 +19°C° 0.2 mm 2 mps 641 mmHg 86%
    01:00 +19°C° 0.2 mm 2 mps 641 mmHg 87%
    02:00 +20°C° 0 mm 1 mps 640 mmHg 89%
    03:00 +19°C° 0.3 mm 2 mps 640 mmHg 90%
    04:00 +19°C° 0.3 mm 2 mps 640 mmHg 90%
    05:00 +18°C° 0.3 mm 2 mps 640 mmHg 91%
    06:00 +20°C° 0.4 mm 2 mps 641 mmHg 86%
    07:00 +21°C° 0.4 mm 2 mps 642 mmHg 82%
    08:00 +23°C° 0 mm 2 mps 642 mmHg 79%
    09:00 +24°C° 1.9 mm 2 mps 642 mmHg 76%
    10:00 +24°C° 1.9 mm 3 mps 642 mmHg 73%
    11:00 +25°C° 1.9 mm 3 mps 642 mmHg 70%
    12:00 +24°C° 4.6 mm 3 mps 641 mmHg 77%
    13:00 +23°C° 4.6 mm 2 mps 641 mmHg 83%
    14:00 +19°C° 0 mm 2 mps 641 mmHg 95%
    15:00 +19°C° 8.3 mm 2 mps 640 mmHg 94%
    16:00 +20°C° 8.3 mm 1 mps 640 mmHg 94%
    17:00 +21°C° 8.3 mm 1 mps 640 mmHg 93%
    18:00 +20°C° 0.3 mm 1 mps 641 mmHg 93%
    19:00 +19°C° 0.3 mm 2 mps 641 mmHg 93%
    20:00 +19°C° 0.3 mm 3 mps 642 mmHg 94%
    21:00 +19°C° 0 mm 3 mps 642 mmHg 94%
    22:00 +19°C° 0 mm 3 mps 642 mmHg 94%
    23:00 +19°C° 0 mm 4 mps 642 mmHg 94%

    Tomorrow, 10 December, Tuesday

    Time Temperature Precipitation Wind Pressure Humidity
    00:00 +19°C° 0 mm 4 mps 642 mmHg 94%
    01:00 +18°C° 0 mm 3 mps 641 mmHg 95%
    02:00 +18°C° 0 mm 3 mps 641 mmHg 95%
    03:00 +18°C° 0.5 mm 3 mps 641 mmHg 94%
    04:00 +19°C° 0.5 mm 4 mps 641 mmHg 94%
    05:00 +19°C° 0.5 mm 4 mps 641 mmHg 93%
    06:00 +19°C° 1 mm 4 mps 642 mmHg 91%
    07:00 +20°C° 1 mm 4 mps 642 mmHg 89%
    08:00 +20°C° 1 mm 4 mps 643 mmHg 87%
    09:00 +21°C° 1.1 mm 4 mps 643 mmHg 84%
    10:00 +22°C° 1.1 mm 3 mps 643 mmHg 81%
    11:00 +22°C° 1.1 mm 3 mps 643 mmHg 79%
    12:00 +24°C° 1.7 mm 3 mps 642 mmHg 78%
    13:00 +24°C° 1.7 mm 2 mps 642 mmHg 77%
    14:00 +24°C° 1.7 mm 2 mps 642 mmHg 76%
    15:00 +23°C° 2.2 mm 2 mps 641 mmHg 82%
    16:00 +22°C° 2.2 mm 1 mps 641 mmHg 88%
    17:00 +21°C° 2.2 mm 1 mps 640 mmHg 93%
    18:00 +21°C° 1.5 mm 1 mps 641 mmHg 94%
    19:00 +20°C° 1.5 mm 1 mps 641 mmHg 95%
    20:00 +19°C° 1.5 mm 2 mps 641 mmHg 95%
    21:00 +19°C° 3 mm 2 mps 641 mmHg 96%
    22:00 +19°C° 3 mm 2 mps 641 mmHg 96%
    23:00 +19°C° 3 mm 2 mps 641 mmHg 97%

    Day after tomorrow, 11 December, Wednesday

    Time Temperature Precipitation Wind Pressure Humidity
    00:00 +18°C° 5.6 mm 2 mps 641 mmHg 97%
    01:00 +18°C° 5.6 mm 2 mps 641 mmHg 97%
    02:00 +18°C° 5.6 mm 2 mps 640 mmHg 97%
    03:00 +18°C° 7.3 mm 2 mps 640 mmHg 97%
    04:00 +18°C° 7.3 mm 2 mps 640 mmHg 97%
    05:00 +18°C° 7.3 mm 2 mps 640 mmHg 97%
    06:00 +18°C° 3.4 mm 2 mps 640 mmHg 96%
    07:00 +18°C° 3.4 mm 2 mps 641 mmHg 96%
    08:00 +18°C° 3.4 mm 3 mps 641 mmHg 95%
    09:00 +19°C° 0.4 mm 2 mps 641 mmHg 94%
    10:00 +19°C° 0.4 mm 2 mps 641 mmHg 92%
    11:00 +19°C° 0.4 mm 2 mps 641 mmHg 91%
    12:00 +20°C° 0.1 mm 2 mps 641 mmHg 86%
    13:00 +21°C° 0.1 mm 3 mps 641 mmHg 82%
    14:00 +22°C° 0.1 mm 3 mps 641 mmHg 77%
    15:00 +22°C° 0.1 mm 3 mps 641 mmHg 76%
    16:00 +24°C° 0.1 mm 3 mps 641 mmHg 76%
    17:00 +24°C° 0.1 mm 2 mps 641 mmHg 75%
    18:00 +21°C° 0 mm 2 mps 641 mmHg 80%
    19:00 +20°C° 0 mm 2 mps 641 mmHg 86%
    20:00 +19°C° 0 mm 2 mps 641 mmHg 91%
    21:00 +19°C° 0 mm 1 mps 641 mmHg 92%
    22:00 +19°C° 0 mm 1 mps 642 mmHg 92%
    23:00 +18°C° 0 mm 1 mps 642 mmHg 93%

    12 December, Thursday

    Time Temperature Precipitation Wind Pressure Humidity
    00:00 +18°C° 0 mm 1 mps 641 mmHg 94%
    01:00 +18°C° 0 mm 1 mps 641 mmHg 94%
    02:00 +18°C° 0 mm 1 mps 641 mmHg 95%
    03:00 +18°C° 0 mm 1 mps 641 mmHg 95%
    04:00 +18°C° 0 mm 1 mps 641 mmHg 94%
    05:00 +17°C° 0 mm 2 mps 641 mmHg 93%
    06:00 +19°C° 0 mm 2 mps 641 mmHg 83%
    07:00 +21°C° 0 mm 3 mps 642 mmHg 73%
    08:00 +22°C° 0 mm 3 mps 643 mmHg 63%
    09:00 +25°C° 0 mm 3 mps 643 mmHg 59%
    10:00 +26°C° 0 mm 4 mps 643 mmHg 55%
    11:00 +27°C° 0 mm 4 mps 643 mmHg 51%
    12:00 +27°C° 0 mm 4 mps 643 mmHg 50%
    13:00 +28°C° 0 mm 4 mps 642 mmHg 49%
    14:00 +28°C° 0 mm 3 mps 642 mmHg 48%
    15:00 +28°C° 0 mm 3 mps 642 mmHg 51%
    16:00 +27°C° 0 mm 3 mps 642 mmHg 53%
    17:00 +26°C° 0 mm 3 mps 642 mmHg 56%
    18:00 +25°C° 0 mm 3 mps 642 mmHg 62%
    19:00 +22°C° 0 mm 3 mps 642 mmHg 69%
    20:00 +21°C° 0 mm 3 mps 642 mmHg 75%
    21:00 +20°C° 0 mm 3 mps 642 mmHg 79%
    22:00 +20°C° 0 mm 3 mps 643 mmHg 83%
    23:00 +19°C° 0 mm 3 mps 643 mmHg 87%

    13 December, Friday

    Time Temperature Precipitation Wind Pressure Humidity
    00:00 +19°C° 0 mm 3 mps 643 mmHg 89%
    01:00 +18°C° 0 mm 3 mps 642 mmHg 92%
    02:00 +18°C° 0 mm 3 mps 642 mmHg 94%
    03:00 +18°C° 0 mm 3 mps 643 mmHg 94%
    04:00 +18°C° 0 mm 4 mps 643 mmHg 93%
    05:00 +18°C° 0 mm 4 mps 643 mmHg 92%
    06:00 +19°C° 0 mm 4 mps 644 mmHg 88%
    07:00 +20°C° 0 mm 4 mps 644 mmHg 83%
    08:00 +21°C° 0 mm 5 mps 644 mmHg 79%
    09:00 +23°C° 0 mm 4 mps 645 mmHg 71%
    10:00 +25°C° 0 mm 4 mps 645 mmHg 63%
    11:00 +27°C° 0 mm 3 mps 645 mmHg 55%
    12:00 +28°C° 0 mm 3 mps 645 mmHg 51%
    13:00 +28°C° 0 mm 4 mps 644 mmHg 48%
    14:00 +29°C° 0 mm 4 mps 644 mmHg 44%
    15:00 +28°C° 0 mm 4 mps 643 mmHg 48%
    16:00 +28°C° 0 mm 4 mps 643 mmHg 52%
    17:00 +27°C° 0 mm 4 mps 643 mmHg 55%
    18:00 +25°C° 0 mm 4 mps 643 mmHg 63%
    19:00 +23°C° 0 mm 4 mps 643 mmHg 71%
    20:00 +21°C° 0 mm 4 mps 643 mmHg 79%
    21:00 +20°C° 0 mm 4 mps 643 mmHg 83%
    22:00 +20°C° 0 mm 4 mps 643 mmHg 87%
    23:00 +19°C° 0 mm 3 mps 643 mmHg 91%

    14 December, Saturday

    Time Temperature Precipitation Wind Pressure Humidity
    00:00 +19°C° 0 mm 3 mps 643 mmHg 92%
    01:00 +18°C° 0 mm 3 mps 643 mmHg 94%
    02:00 +18°C° 0 mm 3 mps 643 mmHg 96%
    03:00 +18°C° 0 mm 3 mps 643 mmHg 95%
    04:00 +18°C° 0 mm 3 mps 643 mmHg 95%
    05:00 +18°C° 0 mm 2 mps 643 mmHg 94%
    06:00 +19°C° 0 mm 2 mps 643 mmHg 87%
    07:00 +20°C° 0 mm 2 mps 644 mmHg 81%
    08:00 +23°C° 0 mm 2 mps 645 mmHg 74%
    09:00 +25°C° 0 mm 2 mps 645 mmHg 62%
    10:00 +27°C° 0 mm 2 mps 645 mmHg 50%
    11:00 +29°C° 0 mm 2 mps 645 mmHg 38%
    12:00 +30°C° 0 mm 3 mps 645 mmHg 35%
    13:00 +31°C° 0 mm 3 mps 644 mmHg 32%
    14:00 +31°C° 0 mm 3 mps 644 mmHg 28%
    15:00 +31°C° 0 mm 3 mps 644 mmHg 32%
    16:00 +30°C° 0 mm 3 mps 643 mmHg 35%
    17:00 +29°C° 0 mm 3 mps 643 mmHg 39%
    18:00 +27°C° 0 mm 3 mps 643 mmHg 45%
    19:00 +25°C° 0 mm 2 mps 643 mmHg 51%
    20:00 +23°C° 0 mm 2 mps 643 mmHg 57%
    21:00 +23°C° 0 mm 2 mps 643 mmHg 59%
    22:00 +21°C° 0 mm 2 mps 643 mmHg 61%
    23:00 +21°C° 0 mm 2 mps 643 mmHg 62%
    Show more